[[{"header":{"parameterUnit":"m.s-1","parameterCategory":1,"la1":30.2991,"la2":30.254,"lo1":-89.0895,"lo2":-89.0444,"dy":0.0017,"dx":0.0017,"nx":28,"ny":28,"refTime":"2025-12-16T03:00:00:Z","depth":0,"parameterNumber":2,"parameterNumberName":"U-component_of_WINDS"},"data":[0,0,0,0,0,0,0,0,0,0,0,0,0,0,0,0,0,0,0,0,0,0,0,0,0,0,0,0,0,0,0,0,0,0,0,0,0,0,0,0,0,0,0,0,0,0,0,0,0,0,0,0,0,0,0,0,0,0,-3.3045,-3.3046,0,-3.3182,-3.3184,-3.3186,-3.3177,-3.3175,-3.3173,-3.3171,-3.3313,-3.3318,-3.3324,0,0,0,0,0,0,0,0,0,0,0,0,0,-3.2776,-3.2781,-3.3045,-3.3046,-3.3048,-3.3182,-3.3184,-3.3186,-3.3177,-3.3174,-3.3172,-3.317,-3.3311,-3.3318,-3.3325,0,0,0,0,0,0,0,0,0,0,0,0,0,-3.2901,-3.2783,-3.3044,-3.306,-3.3063,-3.3182,-3.3184,-3.3186,-3.3177,-3.3174,-3.3171,-3.3169,-3.3309,-3.3317,-3.3325,-3.3439,0,0,-3.3352,-3.3355,0,0,0,0,0,0,0,0,-3.2894,-3.2911,-3.3056,-3.3059,-3.3062,-3.3159,-3.3142,-3.3271,-3.3178,-3.3134,-3.3171,-3.3167,-3.3264,-3.3276,-3.3309,-3.3446,-3.3452,-3.3352,-3.3357,-3.3361,-3.3363,0,0,0,0,0,0,0,-3.2886,-3.2905,-3.3099,-3.3058,-3.3062,-3.3061,-3.3075,-3.3166,-3.3215,-3.3137,-3.3137,-3.3154,-3.3265,-3.3301,-3.3312,-3.3454,-3.3352,-3.336,-3.3365,-3.3368,-3.3691,-3.3694,0,0,0,0,0,0,-3.2873,-3.2898,-3.3095,-3.3103,-3.2969,-3.3068,-3.3084,-3.3131,-3.3213,-3.3223,-3.3156,-3.3153,-3.3288,-3.3302,-3.3317,-3.3454,-3.3361,-3.3369,-3.3374,-3.3687,-3.3691,-3.3695,0,0,0,0,0,0,-3.2868,-3.2891,-3.3089,-3.3001,-3.3026,-3.3076,-3.3129,-3.3135,-3.317,-3.3227,-3.3236,-3.3183,-3.3286,-3.3305,-3.3409,-3.3459,-3.3373,-3.3381,-3.3683,-3.3689,-3.3693,-3.373,0,0,0,0,0,0,-3.286,-3.2889,-3.2932,-3.3002,-3.3031,-3.3178,-3.3132,-3.314,-3.3185,-3.3182,-3.3255,-3.3264,-3.3285,-3.3396,-3.3417,-3.3469,-3.3387,-3.3679,-3.3686,-3.3692,-3.3725,-3.3736,-3.3746,0,0,0,0,0,-3.285,-3.2937,-3.2934,-3.2958,-3.3085,-3.3181,-3.3197,-3.3219,-3.3189,-3.3233,-3.327,-3.3262,-3.3451,-3.3407,-3.343,-3.3486,-3.3676,-3.3684,-3.3691,-3.372,-3.3734,-3.3746,0,0,0,0,0,0,-3.2872,-3.2946,-3.2944,-3.3056,-3.3112,-3.3179,-3.3234,-3.3233,-3.3299,-3.3294,-3.3319,-3.3335,-3.3439,-3.3473,-3.3423,-3.36,-3.356,-3.3572,-3.3573,-3.3587,-3.3597,-3.3586,-3.3394,0,0,0,0,0,-3.289,-3.296,-3.3022,-3.3115,-3.3143,-3.3184,-3.3227,-3.3239,-3.3298,-3.3322,-3.3366,-3.3425,-3.3497,-3.3545,-3.3615,-3.3731,-3.3746,-3.3781,-3.3792,-3.38,-3.381,-3.3874,-3.389,-3.3721,-3.3721,-3.3721,0,0,-3.2927,-3.2976,-3.3019,-3.312,-3.3165,-3.3238,-3.3204,-3.3283,-3.3337,-3.3334,-3.3434,-3.3469,-3.3536,-3.3646,-3.3697,-3.3678,-3.3861,-3.381,-3.3816,-3.3822,-3.3883,-3.3899,-3.3914,-3.3726,-3.3725,-3.3724,0,0,-3.3031,-3.3077,-3.3158,-3.3204,-3.3273,-3.33,-3.332,-3.3388,-3.3411,-3.3511,-3.351,-3.3577,-3.3701,-3.3749,-3.3789,-3.3914,-3.3909,-3.3937,-3.3991,-3.4053,-3.4066,-3.4078,-3.4121,-3.4137,-3.3947,-3.3947,-3.3948,0,-3.3069,-3.3178,-3.3201,-3.328,-3.3324,-3.3325,-3.3408,-3.3452,-3.3541,-3.3572,-3.355,-3.3706,-3.3752,-3.3873,-3.3903,-3.3937,-3.396,-3.3927,-3.4062,-3.4074,-3.4086,-3.4127,-3.4144,-3.395,-3.395,-3.395,-3.3949,0,-3.322,-3.3297,-3.3355,-3.3439,-3.349,-3.3571,-3.3607,-3.3657,-3.3665,-3.3695,-3.3798,-3.3853,-3.3934,-3.3964,-3.3973,-3.4087,-3.4073,-3.4057,-3.4016,-3.4104,-3.4144,-3.416,-3.3954,-3.3953,-3.3952,-3.3952,0,0,-3.334,-3.3437,-3.3457,-3.3496,-3.3572,-3.3632,-3.3714,-3.3793,-3.3834,-3.3896,-3.3965,-3.4072,-3.4057,-3.4103,-3.4118,-3.4173,-3.4267,-3.415,-3.4152,-3.4168,-3.4395,-3.4405,-3.4423,-3.4266,-3.4269,-3.4271,-3.4389,0,-3.3451,-3.3594,-3.3617,-3.3743,-3.3814,-3.3817,-3.3888,-3.3943,-3.3974,-3.4039,-3.4073,-3.4148,-3.4124,-3.4152,-3.4206,-3.4244,-3.4313,-3.4236,-3.4329,-3.4332,-3.4309,-3.4444,-3.4455,-3.4562,-3.4404,-3.4407,-3.4409,0,-3.3598,-3.3663,-3.3796,-3.3863,-3.3894,-3.3957,-3.4031,-3.4094,-3.4157,-3.4176,-3.4228,-3.4237,-3.4323,-3.428,-3.4399,-3.4346,-3.4386,-3.4411,-3.4416,-3.4423,-3.4374,-3.4453,-3.4597,-3.4613,-3.4434,-3.4432,-3.443,0,-3.367,-3.3791,-3.3885,-3.3919,-3.4,-3.4044,-3.4081,-3.4141,-3.4187,-3.4253,-3.4283,-3.4359,-3.44,-3.4458,-3.4488,-3.4454,-3.4604,-3.4564,-3.4621,-3.4621,-3.465,-3.4648,-3.4801,-3.468,-3.468,-3.468,-3.4679,0,-3.379,-3.387,-3.3919,-3.3977,-3.4067,-3.4095,-3.4184,-3.422,-3.4274,-3.4339,-3.4348,-3.441,-3.4446,-3.4513,-3.4538,-3.4631,-3.465,-3.4668,-3.4673,-3.4666,-3.4663,-3.469,-3.4683,-3.4684,-3.4683,-3.4682,-3.4682,0,-3.3883,-3.3919,-3.4022,-3.4091,-3.4111,-3.4175,-3.4234,-3.4291,-3.4322,-3.4405,-3.4427,-3.4476,-3.4556,-3.4592,-3.4691,-3.4707,-3.4813,-3.4814,-3.4791,-3.4793,-3.4847,-3.4841,-3.5022,-3.5046,-3.4911,-3.4912,-3.4913,0,-3.3956,-3.4018,-3.4094,-3.4138,-3.4175,-3.4247,-3.4294,-3.4324,-3.4373,-3.445,-3.4498,-3.4578,-3.4643,-3.4771,-3.4816,-3.4892,-3.4893,-3.4952,-3.4905,-3.4896,-3.4892,-3.4887,-3.4893,-3.4959,-3.4961,-3.4962,-3.4963,0,-3.4081,-3.4096,-3.4163,-3.4237,-3.4293,-3.4353,-3.4411,-3.4447,-3.4487,-3.4542,-3.4623,-3.4674,-3.4775,-3.4854,-3.4933,-3.4971,-3.4974,-3.4978,-3.4994,-3.4986,-3.497,-3.4978,-3.4812,-3.4973,-3.4972,-3.4971,-3.497,-3.497,-3.4166,-3.4221,-3.4283,-3.4357,-3.4405,-3.4459,-3.4516,-3.4555,-3.4623,-3.4706,-3.4721,-3.4807,-3.4871,-3.4977,-3.5018,-3.5087,-3.5073,-3.5098,-3.5104,-3.5109,-3.5111,-3.4961,-3.5102,-3.5102,-3.5101,-3.5101,-3.5101,0,-3.429,-3.433,-3.4398,-3.448,-3.4539,-3.4537,-3.4602,-3.4651,-3.4727,-3.4785,-3.4849,-3.4943,-3.502,-3.5072,-3.5151,-3.5196,-3.5199,-3.5215,-3.5211,-3.522,-3.512,-3.5096,-3.5211,-3.5211,-3.5211,-3.5211,-3.5211,-3.5211,-3.4361,-3.4454,-3.4476,-3.4593,-3.4633,-3.4717,-3.4754,-3.4805,-3.4852,-3.4955,-3.5019,-3.5053,-3.5109,-3.5192,-3.5263,-3.5276,-3.5304,-3.5321,-3.5333,-3.5239,-3.5227,-3.5216,-3.5194,-3.5327,-3.5327,-3.5427,-3.5428,-3.5429]},{"header":{"parameterUnit":"m.s-1","parameterCategory":1,"la1":30.2991,"la2":30.254,"lo1":-89.0895,"lo2":-89.0444,"dy":0.0017,"dx":0.0017,"nx":28,"ny":28,"refTime":"2025-12-16T03:00:00:Z","depth":0,"parameterNumber":3,"parameterNumberName":"V-component_of_WINDS"},"data":[0,0,0,0,0,0,0,0,0,0,0,0,0,0,0,0,0,0,0,0,0,0,0,0,0,0,0,0,0,0,0,0,0,0,0,0,0,0,0,0,0,0,0,0,0,0,0,0,0,0,0,0,0,0,0,0,0,0,2.5997,2.5998,0,2.6062,2.6063,2.6064,2.6047,2.6046,2.6044,2.6043,2.6106,2.6109,2.6112,0,0,0,0,0,0,0,0,0,0,0,0,0,2.5856,2.5859,2.5997,2.5998,2.5999,2.6062,2.6063,2.6064,2.6047,2.6046,2.6044,2.6043,2.6105,2.6109,2.6112,0,0,0,0,0,0,0,0,0,0,0,0,0,2.5919,2.5859,2.5997,2.5998,2.5999,2.6062,2.6063,2.6064,2.6047,2.6046,2.6044,2.6042,2.6104,2.6108,2.6113,2.6177,0,0,2.6126,2.6128,0,0,0,0,0,0,0,0,2.5915,2.5924,2.5997,2.5998,2.5999,2.6045,2.6036,2.6102,2.6048,2.6029,2.6043,2.6041,2.6087,2.6093,2.6109,2.618,2.6183,2.6126,2.6129,2.6131,2.6132,0,0,0,0,0,0,0,2.5911,2.5921,2.6023,2.5998,2.5999,2.5995,2.6001,2.6049,2.6068,2.603,2.6029,2.6038,2.6087,2.6105,2.611,2.6184,2.6126,2.613,2.6132,2.6134,2.6312,2.6314,0,0,0,0,0,0,2.5906,2.5917,2.6021,2.6025,2.5952,2.5999,2.6006,2.6032,2.6067,2.6071,2.6039,2.6037,2.6098,2.6105,2.6112,2.619,2.6131,2.6135,2.6137,2.631,2.6312,2.6314,0,0,0,0,0,0,2.5903,2.5915,2.6018,2.5971,2.5984,2.6003,2.6032,2.6034,2.6052,2.6074,2.6077,2.6054,2.6097,2.6106,2.6162,2.6192,2.6137,2.614,2.6307,2.631,2.6313,2.6346,0,0,0,0,0,0,2.5899,2.5914,2.594,2.5972,2.5986,2.6067,2.6034,2.6037,2.606,2.6057,2.6088,2.6092,2.6096,2.6155,2.6166,2.6197,2.6144,2.6304,2.6309,2.6312,2.6342,2.635,2.6357,0,0,0,0,0,2.5894,2.5945,2.5941,2.5954,2.6018,2.6069,2.6077,2.6082,2.6062,2.6087,2.6102,2.6091,2.6188,2.6161,2.6173,2.6206,2.6302,2.6307,2.6312,2.6339,2.6349,2.6357,0,0,0,0,0,0,2.5915,2.595,2.5945,2.6008,2.6036,2.6066,2.6097,2.6092,2.6125,2.6121,2.6125,2.6132,2.6189,2.6203,2.6173,2.627,2.6242,2.6249,2.6259,2.6268,2.6275,2.6269,2.6147,0,0,0,0,0,2.5927,2.5966,2.5994,2.6047,2.6062,2.6078,2.61,2.6102,2.613,2.6141,2.6159,2.6186,2.6222,2.6246,2.6281,2.6345,2.6351,2.6374,2.6381,2.6387,2.6392,2.6427,2.6437,2.633,2.633,2.633,0,0,2.5952,2.5976,2.6,2.6052,2.6074,2.6113,2.6087,2.613,2.6159,2.6147,2.62,2.6215,2.6245,2.6305,2.6332,2.6319,2.6424,2.6393,2.6397,2.64,2.6433,2.6443,2.6452,2.6334,2.6333,2.6332,0,0,2.6018,2.6041,2.6087,2.611,2.6144,2.6154,2.6165,2.6197,2.6206,2.626,2.6252,2.6287,2.635,2.6371,2.6391,2.6467,2.6458,2.6478,2.6514,2.6548,2.6557,2.6564,2.659,2.66,2.6484,2.6484,2.6484,0,2.6044,2.6104,2.6112,2.6156,2.6178,2.6172,2.6218,2.624,2.6282,2.6298,2.6283,2.6362,2.6382,2.6447,2.6466,2.6482,2.6494,2.6473,2.6555,2.6563,2.657,2.6595,2.6605,2.6486,2.6486,2.6486,2.6486,0,2.6135,2.6177,2.6211,2.6253,2.628,2.6326,2.6339,2.6365,2.6366,2.6378,2.6433,2.6457,2.6496,2.6512,2.6512,2.6577,2.6568,2.6554,2.6525,2.6582,2.6605,2.6615,2.6489,2.6489,2.6488,2.6488,0,0,2.6213,2.6261,2.6273,2.6293,2.633,2.6362,2.6407,2.6447,2.6469,2.65,2.6537,2.6591,2.6579,2.6601,2.6604,2.6634,2.6692,2.6616,2.6617,2.6628,2.6764,2.6773,2.6784,2.6687,2.6689,2.669,2.6761,0,2.6281,2.6361,2.637,2.6441,2.6479,2.6474,2.6514,2.654,2.6553,2.6587,2.6601,2.6639,2.6621,2.6634,2.6663,2.6678,2.6719,2.6674,2.672,2.6721,2.6711,2.6796,2.6806,2.6871,2.677,2.6772,2.6773,0,2.637,2.6405,2.648,2.6513,2.6529,2.6565,2.6602,2.6635,2.6666,2.6673,2.6699,2.6698,2.6743,2.6715,2.6777,2.6746,2.6766,2.6777,2.6779,2.6782,2.6749,2.68,2.6892,2.6902,2.6788,2.6786,2.6785,0,2.6419,2.6484,2.6537,2.6554,2.6594,2.6619,2.6637,2.6665,2.6689,2.6722,2.6737,2.6775,2.6795,2.6824,2.6833,2.6812,2.6895,2.6867,2.6901,2.6901,2.6917,2.6915,2.7012,2.6933,2.6932,2.6932,2.6932,0,2.6492,2.6538,2.656,2.6592,2.6644,2.6653,2.6704,2.672,2.6746,2.6781,2.6779,2.6812,2.6823,2.6858,2.6865,2.6915,2.6925,2.6931,2.6932,2.693,2.6929,2.6942,2.6937,2.6935,2.6934,2.6934,2.6933,0,2.6554,2.657,2.6628,2.6662,2.6672,2.6708,2.6736,2.6767,2.6781,2.6825,2.6836,2.6857,2.6897,2.691,2.6959,2.6964,2.7022,2.702,2.7012,2.7012,2.7045,2.7041,2.7151,2.7166,2.7078,2.7079,2.708,0,2.6599,2.6635,2.6673,2.6697,2.6716,2.6755,2.678,2.6791,2.6817,2.6855,2.6881,2.6922,2.6955,2.702,2.7039,2.7076,2.7074,2.711,2.7079,2.7076,2.7073,2.707,2.7073,2.7115,2.7116,2.7117,2.7117,0,2.6677,2.6684,2.672,2.676,2.679,2.6822,2.6852,2.6872,2.6887,2.6916,2.6959,2.6985,2.7035,2.7075,2.7114,2.7131,2.7126,2.7128,2.7137,2.7135,2.7128,2.7131,2.7026,2.7124,2.7124,2.7123,2.7123,2.7122,2.6731,2.6763,2.6795,2.6835,2.686,2.6889,2.692,2.6938,2.6974,2.7017,2.7021,2.7067,2.7097,2.7148,2.7168,2.7203,2.7192,2.7206,2.7209,2.7212,2.7214,2.7124,2.721,2.721,2.721,2.7209,2.7209,0,2.6808,2.6829,2.6867,2.691,2.6942,2.6938,2.6971,2.6998,2.7038,2.7068,2.7101,2.715,2.7189,2.7211,2.725,2.7274,2.7273,2.7284,2.7281,2.7285,2.7222,2.7209,2.7284,2.7284,2.7284,2.7284,2.7284,2.7284,2.6852,2.6905,2.6916,2.698,2.7001,2.7046,2.7066,2.7092,2.7115,2.7171,2.7204,2.7219,2.7245,2.7286,2.7322,2.7328,2.7341,2.7353,2.7357,2.7297,2.729,2.7282,2.727,2.7356,2.7357,2.7417,2.7418,2.7418]}]]